Location: Unspecified
(0.0000°N, 0.0000°E)
Time: 19:30:50
(UTC+00:00)

Explorer 11/Cluster Stage 4 - Pass Details

Date: 28 November 2019
Orbit: 467 x 1259 km, 28.8° (Epoch: 09 December)

Event Time Altitude Azimuth Distance (km) Brightness Sun altitude
Exits shadow 03:37:32 - 220° (SW) 3,354 9.6 -30.1°
Reaches altitude 10° 03:38:55 10° 211° (SSW) 3,235 9.6 -29.8°
Maximum altitude 03:40:40 11° 198° (SSW) 3,176 9.7 -29.4°
Drops below altitude 10° 03:42:25 10° 186° (S) 3,222 9.9 -29.0°
Sets 03:48:34 0° 151° (SSE) 4,094 11.0 -27.6°
